TimeEST,TemperatureF,Dew PointF,Humidity,Sea Level PressureIn,VisibilityMPH,Wind Direction,Wind SpeedMPH,Gust SpeedMPH,PrecipitationIn,Events,Conditions,WindDirDegrees,DateUTC
12:55 AM,10.0,8.2,92,30.41,7.0,North,5.8,-,N/A,,Clear,360,2013-01-27 05:55:00
1:55 AM,8.4,5.0,86,30.44,7.0,North,4.6,-,N/A,,Clear,350,2013-01-27 06:55:00
2:55 AM,3.6,0.9,89,30.47,7.0,Calm,Calm,-,N/A,,Clear,0,2013-01-27 07:55:00
3:55 AM,4.1,1.6,89,30.48,7.0,NW,4.6,-,N/A,,Clear,320,2013-01-27 08:55:00
4:55 AM,2.8,0.1,88,30.49,7.0,Calm,Calm,-,N/A,,Clear,0,2013-01-27 09:55:00
5:55 AM,2.8,-0.0,88,30.51,7.0,Calm,Calm,-,N/A,,Clear,0,2013-01-27 10:55:00
6:55 AM,-4.4,-8.0,84,30.53,7.0,Calm,Calm,-,N/A,,Clear,0,2013-01-27 11:55:00
7:55 AM,-0.4,-3.6,86,30.56,7.0,Calm,Calm,-,N/A,,Clear,0,2013-01-27 12:55:00
8:55 AM,4.8,1.6,86,30.57,7.0,Calm,Calm,-,N/A,,Clear,0,2013-01-27 13:55:00
9:55 AM,6.4,1.0,78,30.58,7.0,East,3.5,-,N/A,,Clear,100,2013-01-27 14:55:00
10:55 AM,8.2,0.3,70,30.59,7.0,Calm,Calm,-,N/A,,Clear,0,2013-01-27 15:55:00
11:55 AM,11.3,1.6,65,30.56,7.0,ESE,3.5,-,N/A,,Clear,120,2013-01-27 16:55:00
12:55 PM,13.6,0.9,57,30.54,7.0,SSE,4.6,-,N/A,,Clear,160,2013-01-27 17:55:00
1:55 PM,15.8,-2.4,45,30.53,7.0,Calm,Calm,-,N/A,,Clear,0,2013-01-27 18:55:00
2:55 PM,18.3,-2.4,40,30.53,7.0,Calm,Calm,-,N/A,,Clear,0,2013-01-27 19:55:00
3:56 PM,18.1,-0.9,43,30.54,7.0,Calm,Calm,-,N/A,,Clear,0,2013-01-27 20:56:00
4:55 PM,15.4,-4.0,42,30.56,7.0,West,4.6,-,N/A,,Mostly Cloudy,280,2013-01-27 21:55:00
5:55 PM,15.3,-3.6,43,30.54,10.0,Calm,Calm,-,N/A,,Overcast,0,2013-01-27 22:55:00
6:55 PM,14.5,-0.0,53,30.52,10.0,Variable,3.5,-,N/A,,Overcast,0,2013-01-27 23:55:00
7:55 PM,12.6,1.8,62,30.51,10.0,SE,3.5,-,N/A,,Mostly Cloudy,140,2013-01-28 00:55:00
8:55 PM,14.9,3.9,62,30.50,10.0,SE,6.9,-,N/A,,Overcast,140,2013-01-28 01:55:00
9:55 PM,16.3,5.0,61,30.47,10.0,ESE,8.1,-,N/A,,Overcast,120,2013-01-28 02:55:00
10:55 PM,17.2,5.4,60,30.41,10.0,ESE,8.1,-,N/A,,Overcast,120,2013-01-28 03:55:00
11:55 PM,17.4,5.5,60,30.45,10.0,SSE,6.9,-,N/A,,Overcast,150,2013-01-28 04:55:00